Weather in Kalininsk

Russia / Saratov Oblast     51°29′58″N   44°29′07″E
temp.,
°C
wind,
m/s
gust,
m/s
humid.,
%
clouds,
%
prec.,
mm/h
press.,
hPa
HPBL,
m
7 may, fri
fri701:00+11sse41261100 0.0 1015262
04:00+11sse51359100 0.0 1015320
07:00+11sse51458100 0.0 1014390
10:00+13s61261100 0.0 1014479
13:00+17ssw71156100 0.6 10141598
16:00+13wnw7882100 2.6 1015532
19:00+11nnw4686100 2.0 1016429
22:00+9n2591100 2.0 1018225
8 may, sat
sat801:00+7n34950 0.0 101778
04:00+6nne229525 0.0 101812
07:00+8ene119097 0.0 101789
10:00+13se337616 0.0 1016562
13:00+18ssw565569 0.1 10141526
16:00+19ssw674393 0.1 10131452
19:00+17ssw4857100 0.0 1013319
22:00+14sse4963100 0.0 1012189
9 may, sun
sun901:00+12sse41178100 0.0 1011217
04:00+11ssw358798 0.1 1012101
07:00+11wnw3496100 1.8 1012305
10:00+11n5588100 2.3 1013464
13:00+10n71092100 2.1 1013525
16:00+8n71192100 6.1 1016508
19:00+7n91592100 1.9 1016568
22:00+7n71390100 2.1 1018599
10 may, mon
mon1001:00+6n81493100 3.7 1018574
04:00+7n81592100 4.7 1019506
07:00+7nne71491100 0.6 1022599
10:00+7nne91590100 0.9 1023616
13:00+9nne91584100 0.1 1024612
16:00+12nne101375100 0.1 1023723
19:00+10ne91579100 0.0 1025675
22:00+8ne8177897 0.0 1025497
11 may, tue
tue1101:00+8ne81778100 0.0 1025485
04:00+8ne81778100 0.0 1025459
07:00+8ne81777100 0.0 1026456
10:00+13ene9156986 0.0 1026542
13:00+18ene1013615 0.0 1025866
16:00+20ene912595 0.0 10241123
19:00+17ene9156784 0.0 1024679
22:00+15e4107094 0.0 1026394